Weather History for Sheridan, WY

Change the Weather History Date:

Saturday, February 2, 2013

  Actual Average Record
Temperature  
Mean Temperature 28 °F 25 °F  
Max Temperature 39 °F 37 °F 65 °F (1934)
Min Temperature 16 °F 12 °F -30 °F (1989)
Degree Days  
Heating Degree Days 37 40  
Month to date heating degree days 70 80  
Since 1 July heating degree days 4265 4540  
Cooling Degree Days 0 0  
Month to date cooling degree days 0 0  
Year to date cooling degree days 0 0  
Moisture  
Dew Point 18 °F    
Average Humidity 66    
Maximum Humidity 77    
Minimum Humidity 54    
Precipitation  
Precipitation 0.00 in 0.02 in 0.40 in (1912)
Month to date precipitation 0.04 0.04  
Year to date precipitation 1.00 0.60  
Sea Level Pressure  
Sea Level Pressure 30.32 in    
Wind  
Wind Speed 5 mph (WSW)    
Max Wind Speed 18 mph    
Max Gust Speed 22 mph    
Visibility 10 miles    
Events      
T = Trace of Precipitation, MM = Missing Value Source: NWS Daily Summary

Daily Weather History Graph

Daily Weather History Graph

Search for Another Location

Airport:

Trip Planner

Search our weather history database for the weather conditions in past years. The results will help you decide how hot, cold, wet, or windy it might be!

Date:

Astronomy

Feb. 02, 2013 Rise Set
Actual Time 7:25 AM MST 5:18 PM MST
Civil Twilight 6:54 AM MST 5:49 PM MST
Nautical Twilight 6:19 AM MST 6:24 PM MST
Astronomical Twilight 5:45 AM MST 6:58 PM MST
Moon No Moon Rise 10:18 AM MST (2/2)
Length of Visible Light 10h 54m
Length of Day
9h 52m
Waning Gibbous, 59% of the Moon is Illuminated
Feb 2
Waning Gibbous
Feb 3
Last Quarter
Feb 10
New
Feb 17
First Quarter
Feb 25
Full

Hourly Weather History & Observations

Time (MST) Temp. Windchill Dew Point Humidity Pressure Visibility Wind Dir Wind Speed Gust Speed Precip Events Conditions
12:53 AM 33.1 °F 26.9 °F 25.0 °F 72% 30.26 in 10.0 mi NNW 6.9 mph - N/A   Overcast
1:53 AM 26.6 °F 19.1 °F 19.4 °F 74% 30.19 in 10.0 mi WNW 6.9 mph - N/A   Clear
2:53 AM 23.0 °F 17.0 °F 15.1 °F 72% 30.31 in 10.0 mi SW 4.6 mph - N/A   Clear
3:53 AM 25.0 °F 19.3 °F 14.0 °F 63% 30.29 in 10.0 mi West 4.6 mph - N/A   Clear
4:53 AM 21.2 °F 11.7 °F 15.8 °F 80% 30.18 in 10.0 mi NNE 8.1 mph - N/A   Clear
5:53 AM 19.9 °F 9.3 °F 10.9 °F 68% 30.31 in 10.0 mi SW 9.2 mph - N/A   Clear
6:53 AM 19.9 °F 13.4 °F 12.0 °F 71% 30.32 in 10.0 mi SSW 4.6 mph - N/A   Clear
7:53 AM 19.9 °F - 10.9 °F 68% 30.35 in 10.0 mi Calm Calm - N/A   Clear
8:53 AM 21.9 °F - 14.0 °F 72% 30.34 in 10.0 mi Calm Calm - N/A   Clear
9:53 AM 28.9 °F - 17.1 °F 61% 30.35 in 10.0 mi Calm Calm - N/A   Clear
10:53 AM 33.1 °F 30.0 °F 19.0 °F 56% 30.37 in 10.0 mi West 3.5 mph - N/A   Clear
11:53 AM 36.0 °F 29.6 °F 21.9 °F 57% 30.35 in 10.0 mi West 8.1 mph - N/A   Clear
12:53 PM 37.9 °F 31.5 °F 24.1 °F 57% 30.34 in 10.0 mi NW 9.2 mph - N/A   Clear
1:53 PM 37.9 °F 29.2 °F 26.1 °F 62% 30.35 in 10.0 mi NW 15.0 mph - N/A   Clear
2:53 PM 39.0 °F 30.3 °F 25.0 °F 57% 30.34 in 10.0 mi NNW 16.1 mph - N/A   Clear
3:53 PM 37.0 °F 33.3 °F 25.0 °F 62% 30.35 in 10.0 mi WNW 4.6 mph - N/A   Clear
4:53 PM 33.1 °F 26.9 °F 21.9 °F 64% 30.36 in 10.0 mi SSW 6.9 mph - N/A   Clear
5:53 PM 28.0 °F 24.2 °F 19.0 °F 69% 30.37 in 10.0 mi South 3.5 mph - N/A   Clear
6:53 PM 25.0 °F - 17.1 °F 72% 30.36 in 10.0 mi Calm Calm - N/A   Clear
7:53 PM 23.0 °F 18.4 °F 16.0 °F 74% 30.36 in 10.0 mi SW 3.5 mph - N/A   Clear
8:53 PM 27.0 °F - 17.1 °F 66% 30.33 in 10.0 mi Calm Calm - N/A   Clear
9:53 PM 24.1 °F 19.7 °F 15.1 °F 69% 30.30 in 10.0 mi SSE 3.5 mph - N/A   Clear
10:53 PM 19.0 °F 12.3 °F 12.9 °F 77% 30.29 in 10.0 mi South 4.6 mph - N/A   Clear
11:53 PM 17.1 °F 10.0 °F 10.9 °F 77% 30.27 in 10.0 mi SSW 4.6 mph - N/A   Clear